TimeCDT,TemperatureF,Dew PointF,Humidity,Sea Level PressureIn,VisibilityMPH,Wind Direction,Wind SpeedMPH,Gust SpeedMPH,PrecipitationIn,Events,Conditions,WindDirDegrees,DateUTC
12:07 AM,66.2,59.0,78,29.86,1.8,WNW,25.3,35.7,0.11,Rain-Thunderstorm,Thunderstorms and Rain,300,2013-06-23 05:07:00
12:15 AM,62.6,59.0,88,29.82,0.5,North,16.1,35.7,0.26,Fog-Rain-Thunderstorm,Heavy Thunderstorms and Rain,10,2013-06-23 05:15:00
12:20 AM,62.6,60.8,94,29.81,2.5,North,16.1,-,0.27,Rain-Thunderstorm,Light Thunderstorms and Rain,350,2013-06-23 05:20:00
12:27 AM,64.4,60.8,88,29.80,10.0,NNW,21.9,26.5,0.27,Rain-Thunderstorm,Light Thunderstorms and Rain,340,2013-06-23 05:27:00
12:44 AM,66.2,59.0,78,29.80,10.0,NW,15.0,-,0.31,Thunderstorm,Thunderstorm,310,2013-06-23 05:44:00
12:53 AM,63.0,59.0,87,29.72,10.0,Calm,Calm,-,0.31,Thunderstorm,Thunderstorm,0,2013-06-23 05:53:00
1:09 AM,64.4,60.8,88,29.82,10.0,NNW,8.1,-,N/A,,Mostly Cloudy,340,2013-06-23 06:09:00
1:53 AM,64.9,62.1,90,29.75,10.0,North,13.8,-,N/A,,Overcast,350,2013-06-23 06:53:00
2:00 AM,64.4,60.8,88,29.85,10.0,North,6.9,-,N/A,Thunderstorm,Overcast,360,2013-06-23 07:00:00
2:53 AM,63.0,61.0,93,29.78,10.0,ENE,12.7,-,0.05,Thunderstorm,Overcast,60,2013-06-23 07:53:00
3:08 AM,62.6,59.0,88,29.85,10.0,ENE,11.5,-,N/A,,Overcast,60,2013-06-23 08:08:00
3:53 AM,62.1,59.0,90,29.74,10.0,East,9.2,-,N/A,,Partly Cloudy,90,2013-06-23 08:53:00
4:53 AM,61.0,57.9,90,29.75,10.0,East,10.4,-,N/A,,Clear,90,2013-06-23 09:53:00
5:53 AM,61.0,57.0,87,29.75,10.0,ESE,6.9,-,N/A,,Clear,110,2013-06-23 10:53:00
6:53 AM,61.0,57.0,87,29.81,10.0,NW,6.9,-,N/A,,Clear,310,2013-06-23 11:53:00
7:53 AM,63.0,57.9,84,29.83,10.0,NNW,11.5,-,N/A,,Clear,340,2013-06-23 12:53:00
8:53 AM,66.0,59.0,78,29.84,10.0,North,10.4,-,N/A,,Clear,350,2013-06-23 13:53:00
9:53 AM,69.1,57.9,68,29.85,10.0,NNE,6.9,-,N/A,,Clear,20,2013-06-23 14:53:00
10:53 AM,72.0,59.0,64,29.85,10.0,Calm,Calm,-,N/A,,Clear,0,2013-06-23 15:53:00
11:53 AM,75.0,61.0,62,29.87,10.0,Variable,5.8,-,N/A,,Partly Cloudy,0,2013-06-23 16:53:00
12:53 PM,77.0,62.1,60,29.88,10.0,ENE,9.2,-,N/A,,Clear,70,2013-06-23 17:53:00
1:53 PM,79.0,62.1,56,29.86,10.0,NNE,6.9,-,N/A,,Clear,30,2013-06-23 18:53:00
2:53 PM,81.0,62.1,52,29.85,10.0,NE,8.1,-,N/A,,Clear,40,2013-06-23 19:53:00
3:53 PM,82.9,62.1,49,29.83,10.0,ENE,9.2,-,N/A,,Clear,60,2013-06-23 20:53:00
4:53 PM,82.9,60.1,46,29.81,10.0,East,8.1,-,N/A,,Clear,100,2013-06-23 21:53:00
5:53 PM,84.0,61.0,46,29.80,10.0,ENE,10.4,-,N/A,,Clear,60,2013-06-23 22:53:00
6:53 PM,82.9,62.1,49,29.78,10.0,ENE,10.4,-,N/A,,Clear,70,2013-06-23 23:53:00
7:53 PM,81.0,63.0,54,29.78,10.0,ENE,13.8,-,N/A,,Clear,70,2013-06-24 00:53:00
8:53 PM,77.0,64.0,64,29.78,10.0,East,13.8,-,N/A,,Clear,80,2013-06-24 01:53:00
9:53 PM,73.9,66.0,76,29.78,10.0,East,13.8,-,N/A,,Clear,80,2013-06-24 02:53:00
10:53 PM,73.0,66.0,79,29.79,10.0,ENE,11.5,-,N/A,,Clear,60,2013-06-24 03:53:00
11:53 PM,71.1,66.0,84,29.78,8.0,ENE,11.5,-,N/A,,Clear,70,2013-06-24 04:53:00